GW2924 Weather Reports


Display with metric or nautical units.
time (UTC)temp
F
wind
direction
speed
MPH
gust
MPH
rain 1hr
in
rain 24hr
in
rain mn
in
humidity
%
barometer
mb
20260506182052 40 283 4.0 9.0 0.00 0.00 0.00 54 1016.9
20260506181600 40 300 3.0 11.0 0.00 0.00 0.00 55 1016.8
20260506181053 41 264 3.0 11.0 0.00 0.00 0.00 55 1016.8
20260506180553 41 301 3.0 7.0 0.00 0.00 0.00 56 1016.8
20260506180058 41 331 3.0 7.0 0.00 0.00 0.00 54 1016.9
20260506175557 40 295 3.0 8.0 0.00 0.00 0.00 55 1016.9
20260506175055 40 296 5.0 10.0 0.00 0.00 0.00 54 1016.9
20260506174607 41 285 2.0 10.0 0.00 0.00 0.00 55 1016.8
20260506174053 41 323 4.0 10.0 0.00 0.00 0.00 54 1017.0
20260506173553 41 279 4.0 9.0 0.00 0.00 0.00 54 1017.0
20260506173056 41 291 4.0 9.0 0.00 0.00 0.00 53 1016.9
20260506172552 41 295 3.0 7.0 0.00 0.00 0.00 56 1017.0
20260506172053 41 303 3.0 6.0 0.00 0.00 0.00 53 1017.0
20260506171602 41 305 3.0 9.0 0.00 0.00 0.00 54 1017.1
20260506171052 41 304 3.0 9.0 0.00 0.00 0.00 54 1017.1
20260506170554 41 304 4.0 9.0 0.00 0.00 0.00 54 1017.1
20260506170103 41 334 2.0 9.0 0.00 0.00 0.00 56 1017.1
20260506165557 41 297 3.0 9.0 0.00 0.00 0.00 55 1017.1
20260506165055 41 290 4.0 8.0 0.00 0.00 0.00 57 1017.2
20260506164559 40 309 3.0 7.0 0.00 0.00 0.00 55 1017.1
20260506164052 40 287 3.0 7.0 0.00 0.00 0.00 58 1017.1
20260506163552 40 328 3.0 7.0 0.00 0.00 0.00 56 1017.2
20260506163126 40 289 2.0 5.0 0.00 0.00 0.00 55 1017.1
20260506162553 40 314 2.0 5.0 0.00 0.00 0.00 56 1017.1
20260506162053 40 304 2.0 6.0 0.00 0.00 0.00 56 1017.0
20260506161554 39 340 3.0 6.0 0.00 0.00 0.00 57 1017.1
20260506161055 39 276 2.0 6.0 0.00 0.00 0.00 56 1017.0
20260506160552 39 264 3.0 6.0 0.00 0.00 0.00 55 1017.0
20260506160056 39 282 2.0 5.0 0.00 0.00 0.00 56 1017.1
20260506155556 39 302 2.0 6.0 0.00 0.00 0.00 56 1017.0
20260506155055 39 293 3.0 7.0 0.00 0.00 0.00 56 1017.0
20260506154558 39 243 3.0 7.0 0.00 0.00 0.00 57 1017.1
20260506154055 39 290 4.0 8.0 0.00 0.00 0.00 57 1017.0
20260506153555 39 309 2.0 8.0 0.00 0.00 0.00 59 1017.0
20260506153119 39 297 4.0 8.0 0.00 0.00 0.00 57 1016.9
20260506152557 39 338 2.0 6.0 0.00 0.00 0.00 59 1016.8
20260506152054 38 288 2.0 6.0 0.00 0.00 0.00 59 1016.8
20260506151556 39 210 2.0 7.0 0.00 0.00 0.00 59 1016.8
20260506151054 38 301 3.0 7.0 0.00 0.00 0.00 59 1016.8
20260506150553 38 314 4.0 7.0 0.00 0.00 0.00 58 1016.8
20260506150057 39 288 3.0 7.0 0.00 0.00 0.00 59 1016.8
20260506145556 39 311 1.0 5.0 0.00 0.00 0.00 60 1016.8
20260506145055 38 290 2.0 5.0 0.00 0.00 0.00 59 1016.8
20260506144557 38 249 2.0 6.0 0.00 0.00 0.00 58 1016.7
20260506144053 38 306 2.0 6.0 0.00 0.00 0.00 61 1016.8
20260506143552 38 259 2.0 6.0 0.00 0.00 0.00 60 1016.8
20260506143056 38 276 2.0 6.0 0.00 0.00 0.00 59 1016.8
20260506142553 38 296 3.0 5.0 0.00 0.00 0.00 60 1016.7
20260506142053 38 295 1.0 5.0 0.00 0.00 0.00 62 1016.7
20260506141555 38 294 2.0 5.0 0.00 0.00 0.00 60 1016.8
20260506141053 38 293 2.0 5.0 0.00 0.00 0.00 61 1016.7
20260506140556 38 294 2.0 4.0 0.00 0.00 0.00 59 1016.7
20260506140054 38 264 2.0 4.0 0.00 0.00 0.00 60 1016.7
20260506135552 38 301 2.0 6.0 0.00 0.00 0.00 60 1016.5
20260506135052 38 233 2.0 6.0 0.00 0.00 0.00 60 1016.6
20260506134556 38 278 2.0 5.0 0.00 0.00 0.00 61 1016.5
20260506134055 38 283 2.0 5.0 0.00 0.00 0.00 61 1016.5
20260506133552 38 300 2.0 5.0 0.00 0.00 0.00 63 1016.5
20260506133055 38 284 2.0 5.0 0.00 0.00 0.00 62 1016.4
20260506132554 37 287 2.0 5.0 0.00 0.00 0.00 63 1016.4
20260506132052 37 303 2.0 5.0 0.00 0.00 0.00 64 1016.4
20260506131607 37 277 2.0 5.0 0.00 0.00 0.00 63 1016.4
20260506131052 37 290 2.0 5.0 0.00 0.00 0.00 64 1016.4
20260506130557 37 313 1.0 7.0 0.00 0.00 0.00 65 1016.4
20260506130054 37 308 2.0 7.0 0.00 0.00 0.00 65 1016.3
20260506125555 37 298 1.0 4.0 0.00 0.00 0.00 66 1016.2
20260506125055 37 303 2.0 4.0 0.00 0.00 0.00 65 1016.1
20260506124557 37 291 1.0 3.0 0.00 0.00 0.00 66 1016.0
20260506124055 37 293 1.0 3.0 0.00 0.00 0.00 64 1016.0
20260506123553 37 284 0.0 2.0 0.00 0.00 0.00 66 1015.8
20260506123112 36 0 0.0 2.0 0.00 0.00 0.00 66 1015.7
20260506122557 36 281 0.0 2.0 0.00 0.00 0.00 66 1015.6
20260506122059 36 344 1.0 4.0 0.00 0.00 0.00 67 1015.5
20260506121612 36 0 0.0 4.0 0.00 0.00 0.00 67 1015.5
20260506121057 36 0 0.0 1.0 0.00 0.00 0.00 67 1015.6
20260506120557 35 0 0.0 1.0 0.00 0.00 0.00 68 1015.6
20260506120058 35 0 0.0 2.0 0.00 0.00 0.00 70 1015.6
20260506115556 34 0 0.0 2.0 0.00 0.00 0.00 71 1015.6
20260506115056 33 222 0.0 1.0 0.00 0.00 0.00 71 1015.5
20260506114554 32 0 0.0 0.0 0.00 0.00 0.00 74 1015.3
20260506114057 31 0 0.0 0.0 0.00 0.00 0.00 75 1015.1
20260506113556 30 0 0.0 0.0 0.00 0.00 0.00 76 1014.9
20260506113056 29 0 0.0 0.0 0.00 0.00 0.00 78 1014.8
20260506112557 28 0 0.0 0.0 0.00 0.00 0.00 78 1014.9
20260506112056 28 0 0.0 0.0 0.00 0.00 0.00 79 1014.8
20260506111558 27 0 0.0 0.0 0.00 0.00 0.00 79 1014.9
20260506111056 27 0 0.0 0.0 0.00 0.00 0.00 79 1014.9
20260506110557 27 0 0.0 0.0 0.00 0.00 0.00 80 1015.0
20260506110103 27 0 0.0 0.0 0.00 0.00 0.00 80 1015.2
20260506105557 27 0 0.0 0.0 0.00 0.00 0.00 79 1015.3
20260506105057 27 0 0.0 1.0 0.00 0.00 0.00 79 1015.1
20260506104606 27 0 0.0 1.0 0.00 0.00 0.00 79 1015.2
20260506104056 27 200 0.0 1.0 0.00 0.00 0.00 78 1015.1
20260506103557 27 200 0.0 1.0 0.00 0.00 0.00 78 1015.1
20260506103103 28 203 0.0 1.0 0.00 0.00 0.00 78 1015.1
20260506102557 28 0 0.0 1.0 0.00 0.00 0.00 78 1015.0
20260506102058 28 265 0.0 1.0 0.00 0.00 0.00 80 1014.9
20260506101625 28 265 0.0 1.0 0.00 0.00 0.00 79 1014.9
20260506101057 28 0 0.0 0.0 0.00 0.00 0.00 80 1014.8
20260506100556 28 0 0.0 1.0 0.00 0.00 0.00 80 1014.9
20260506100059 28 0 0.0 1.0 0.00 0.00 0.00 81 1014.8
20260506095556 28 0 0.0 1.0 0.00 0.00 0.00 82 1014.8
20260506095058 27 0 0.0 0.0 0.00 0.00 0.00 80 1014.7
20260506094600 27 0 0.0 0.0 0.00 0.00 0.00 78 1014.5
20260506094057 28 0 0.0 0.0 0.00 0.00 0.00 77 1014.5
20260506093556 28 0 0.0 0.0 0.00 0.00 0.00 76 1014.5
20260506093100 29 0 0.0 0.0 0.00 0.00 0.00 75 1014.4
20260506092557 30 0 0.0 1.0 0.00 0.00 0.00 74 1014.4
20260506092055 30 0 0.0 1.0 0.00 0.00 0.00 73 1014.4
20260506091554 30 266 0.0 1.0 0.00 0.00 0.00 74 1014.5
20260506091053 30 288 0.0 1.0 0.00 0.00 0.00 74 1014.6
20260506090555 31 241 0.0 1.0 0.00 0.00 0.00 73 1014.6
20260506090111 31 0 0.0 2.0 0.00 0.00 0.00 73 1014.4
20260506085554 31 274 0.0 2.0 0.00 0.00 0.00 74 1014.4
20260506085055 31 274 0.0 2.0 0.00 0.00 0.00 74 1014.3
20260506084620 31 236 0.0 2.0 0.00 0.00 0.00 74 1014.1
20260506084055 31 0 0.0 1.0 0.00 0.00 0.00 74 1014.2
20260506083556 31 0 0.0 1.0 0.00 0.00 0.00 73 1014.2
20260506083054 31 274 0.0 1.0 0.00 0.00 0.00 74 1014.4
20260506082552 31 286 0.0 1.0 0.00 0.00 0.00 73 1014.2
20260506082052 31 286 0.0 2.0 0.00 0.00 0.00 73 1014.3
20260506081611 31 264 0.0 2.0 0.00 0.00 0.00 73 1014.3
20260506081054 31 290 1.0 2.0 0.00 0.00 0.00 74 1014.2
20260506080552 31 243 0.0 1.0 0.00 0.00 0.00 74 1014.3
20260506073054 32 281 0.0 2.0 0.00 0.00 0.00 71 1013.9
20260506072554 32 265 0.0 2.0 0.00 0.00 0.00 71 1013.9
20260506072053 32 278 0.0 2.0 0.00 0.00 0.00 71 1013.8
20260506071555 33 293 0.0 3.0 0.00 0.00 0.00 71 1013.6
20260506071051 33 255 0.0 3.0 0.00 0.00 0.00 71 1013.7
20260506070551 33 248 1.0 3.0 0.00 0.00 0.00 71 1013.6
20260506062055 34 0 0.0 2.0 0.00 0.00 0.00 69 1013.5
20260506061556 34 0 1.0 2.0 0.00 0.00 0.00 68 1013.5
20260506061055 34 278 1.0 2.0 0.00 0.00 0.00 68 1013.6
20260506060555 34 278 1.0 2.0 0.00 0.00 0.00 68 1013.7
20260506051058 36 303 1.0 2.0 0.00 0.00 0.00 64 1013.3
20260506050556 36 302 1.0 3.0 0.00 0.00 0.00 64 1013.4
20260506050117 36 298 1.0 3.0 0.00 0.00 0.00 63 1013.4
20260506045054 37 296 1.0 3.0 0.00 0.00 0.00 62 1013.3
20260506044555 37 271 1.0 3.0 0.00 0.00 0.00 62 1013.2
20260506044053 37 295 1.0 3.0 0.00 0.00 0.00 62 1013.2
20260506043553 37 296 1.0 3.0 0.00 0.00 0.00 61 1013.2
20260506043058 37 299 2.0 3.0 0.00 0.00 0.00 61 1013.3
20260506042553 37 298 1.0 3.0 0.00 0.00 0.00 61 1013.1
20260506042055 38 288 1.0 3.0 0.00 0.00 0.00 60 1013.1
20260506041604 38 301 2.0 3.0 0.00 0.00 0.00 61 1013.1
20260506041054 38 301 1.0 3.0 0.00 0.00 0.00 60 1013.2
20260506040555 38 295 1.0 3.0 0.00 0.00 0.00 61 1013.0
20260506040058 38 311 1.0 3.0 0.00 0.00 0.00 61 1013.0
20260506035557 38 298 1.0 3.0 0.00 0.00 0.00 60 1012.9
20260506035056 38 288 1.0 3.0 0.00 0.00 0.00 59 1012.8
20260506034556 38 282 1.0 3.0 0.00 0.00 0.00 59 1012.8
20260506034053 39 281 1.0 3.0 0.00 0.00 0.00 59 1012.7
20260506033553 39 290 1.0 2.0 0.00 0.00 0.00 58 1012.7
20260506033057 39 274 1.0 2.0 0.00 0.00 0.00 58 1012.7
20260506032553 40 275 1.0 4.0 0.00 0.00 0.00 56 1012.7
20260506032054 40 249 0.0 4.0 0.00 0.00 0.00 55 1012.7
20260506031554 41 262 1.0 4.0 0.00 0.00 0.00 55 1012.7
20260506031055 41 273 0.0 3.0 0.00 0.00 0.00 54 1012.5
20260506030554 41 0 0.0 3.0 0.00 0.00 0.00 54 1012.7
20260506030057 41 229 0.0 4.0 0.00 0.00 0.00 54 1012.5
20260506025553 42 261 1.0 4.0 0.00 0.00 0.00 53 1012.5
20260506025056 41 264 1.0 3.0 0.00 0.00 0.00 54 1012.4
20260506024603 41 251 0.0 2.0 0.00 0.00 0.00 54 1012.4
20260506024054 42 263 1.0 2.0 0.00 0.00 0.00 53 1012.3
20260506023553 42 258 0.0 2.0 0.00 0.00 0.00 52 1012.2
20260506023108 42 268 0.0 2.0 0.00 0.00 0.00 52 1012.0
20260506022554 42 255 1.0 3.0 0.00 0.00 0.00 52 1012.1
20260506022058 43 263 1.0 3.0 0.00 0.00 0.00 52 1012.0
20260506021554 43 290 2.0 4.0 0.00 0.00 0.00 52 1011.9
20260506021054 43 284 2.0 4.0 0.00 0.00 0.00 51 1011.8
20260506020553 44 283 1.0 4.0 0.00 0.00 0.00 51 1011.8
20260506020057 44 255 1.0 5.0 0.00 0.00 0.00 50 1011.7
20260506015554 44 300 1.0 5.0 0.00 0.00 0.00 49 1011.6
20260506015054 45 280 2.0 5.0 0.00 0.00 0.00 48 1011.5
20260506014553 45 297 2.0 5.0 0.00 0.00 0.00 48 1011.5
20260506014056 45 288 2.0 7.0 0.00 0.00 0.00 48 1011.4
20260506013554 45 287 3.0 7.0 0.00 0.00 0.00 47 1011.4
20260506013103 45 290 3.0 6.0 0.00 0.00 0.00 46 1011.3
20260506012554 45 319 1.0 5.0 0.00 0.00 0.00 47 1011.2
20260506012054 46 275 2.0 5.0 0.00 0.00 0.00 46 1011.1
20260506011556 46 276 2.0 5.0 0.00 0.00 0.00 47 1011.3
20260506011054 46 308 3.0 5.0 0.00 0.00 0.00 45 1011.2
20260506010553 46 260 3.0 6.0 0.00 0.00 0.00 45 1011.2
20260506010057 46 297 2.0 7.0 0.00 0.00 0.00 44 1011.1
20260506005554 46 291 3.0 7.0 0.00 0.00 0.00 44 1011.2
20260506005056 46 285 2.0 7.0 0.00 0.00 0.00 44 1011.0
20260506004600 47 283 3.0 6.0 0.00 0.00 0.00 44 1011.0
20260506004053 47 256 2.0 6.0 0.00 0.00 0.00 45 1011.0
20260506003556 47 290 3.0 6.0 0.00 0.00 0.00 44 1010.8
20260506003058 47 310 2.0 6.0 0.00 0.00 0.00 44 1010.8
20260506002552 47 309 3.0 6.0 0.00 0.00 0.00 44 1010.6
20260506002052 47 306 3.0 6.0 0.00 0.00 0.00 43 1010.6
20260506001559 47 275 2.0 6.0 0.00 0.00 0.00 44 1010.7
20260506001054 47 322 3.0 7.0 0.00 0.00 0.00 44 1010.6
20260506000556 48 285 3.0 7.0 0.00 0.00 0.00 44 1010.6
20260505235553 48 312 2.0 8.0 0.00 0.00 0.00 44 1010.5
20260505235053 48 309 3.0 9.0 0.00 0.00 0.00 44 1010.4
20260505234555 48 281 4.0 9.0 0.00 0.00 0.00 43 1010.6
20260505234054 48 308 4.0 9.0 0.00 0.00 0.00 41 1010.5
20260505233553 48 275 4.0 8.0 0.00 0.00 0.00 41 1010.4
20260505233056 48 297 5.0 9.0 0.00 0.00 0.00 42 1010.3
20260505232553 49 297 4.0 9.0 0.00 0.00 0.00 42 1010.3
20260505232059 49 290 3.0 8.0 0.00 0.00 0.00 42 1010.3
20260505231557 49 310 4.0 7.0 0.00 0.00 0.00 41 1010.4
20260505231053 48 293 3.0 8.0 0.00 0.00 0.00 42 1010.4
20260505230557 49 256 4.0 8.0 0.00 0.00 0.00 41 1010.3
20260505230120 49 224 2.0 6.0 0.00 0.00 0.00 40 1010.3
20260505225556 49 287 2.0 9.0 0.00 0.00 0.00 41 1010.3
20260505225056 50 262 2.0 9.0 0.00 0.00 0.00 39 1010.3
20260505224555 49 298 6.0 9.0 0.00 0.00 0.00 41 1010.4
20260505224054 48 277 4.0 8.0 0.00 0.00 0.00 41 1010.4
20260505223553 48 300 4.0 8.0 0.00 0.00 0.00 43 1010.5
20260505223057 48 293 4.0 8.0 0.00 0.00 0.00 42 1010.4
20260505222553 48 294 4.0 8.0 0.00 0.00 0.00 43 1010.4
20260505222053 48 280 3.0 9.0 0.00 0.00 0.00 42 1010.5
20260505221602 49 307 5.0 9.0 0.00 0.00 0.00 41 1010.4
20260505221054 49 300 5.0 9.0 0.00 0.00 0.00 40 1010.4
20260505220553 49 295 4.0 9.0 0.00 0.00 0.00 43 1010.4
20260505215553 49 293 5.0 10.0 0.00 0.00 0.00 42 1010.4
20260505215053 50 281 5.0 13.0 0.00 0.00 0.00 42 1010.3
20260505214557 50 195 6.0 13.0 0.00 0.00 0.00 43 1010.4
20260505214052 50 310 5.0 9.0 0.00 0.00 0.00 42 1010.4
20260505213552 50 311 4.0 10.0 0.00 0.00 0.00 41 1010.4
20260505213100 50 290 5.0 11.0 0.00 0.00 0.00 44 1010.5
20260505212553 50 210 4.0 11.0 0.00 0.00 0.00 43 1010.5
20260505212053 50 33 3.0 11.0 0.00 0.00 0.00 42 1010.4
20260505211602 50 320 5.0 11.0 0.00 0.00 0.00 41 1010.6
20260505211055 50 292 5.0 9.0 0.00 0.00 0.00 39 1010.6
20260505210554 50 266 3.0 10.0 0.00 0.00 0.00 39 1010.5
20260505210106 50 295 4.0 10.0 0.00 0.00 0.00 42 1010.7
20260505205552 49 304 4.0 10.0 0.00 0.00 0.00 43 1010.6
20260505205054 49 247 4.0 9.0 0.00 0.00 0.00 46 1010.6
20260505204605 48 266 5.0 9.0 0.00 0.00 0.00 43 1010.6
20260505204054 49 294 5.0 8.0 0.00 0.00 0.00 44 1010.7
20260505203556 49 299 5.0 8.0 0.00 0.00 0.00 43 1010.7
20260505203107 49 274 2.0 8.0 0.00 0.00 0.00 46 1010.7
20260505202553 49 292 3.0 11.0 0.00 0.00 0.00 43 1010.8
20260505202053 50 302 4.0 11.0 0.00 0.00 0.00 40 1010.9
20260505201557 50 247 5.0 10.0 0.00 0.00 0.00 43 1010.9
20260505201057 50 292 5.0 10.0 0.00 0.00 0.00 44 1010.8
20260505200553 50 259 5.0 10.0 0.00 0.00 0.00 43 1010.9
20260505200110 49 309 4.0 9.0 0.00 0.00 0.00 44 1011.0
20260505195556 49 293 4.0 9.0 0.00 0.00 0.00 43 1011.1
20260505195056 48 319 5.0 9.0 0.00 0.00 0.00 44 1011.0
20260505194600 48 290 4.0 11.0 0.00 0.00 0.00 45 1011.0
20260505194052 48 240 4.0 11.0 0.00 0.00 0.00 45 1011.0
20260505193552 49 257 5.0 10.0 0.00 0.00 0.00 47 1011.0
20260505193104 49 297 4.0 9.0 0.00 0.00 0.00 45 1011.1
20260505192557 48 314 5.0 9.0 0.00 0.00 0.00 46 1011.1
20260505192056 48 236 4.0 9.0 0.00 0.00 0.00 45 1011.0
20260505191607 48 187 6.0 10.0 0.00 0.00 0.00 44 1011.3
20260505191052 48 297 5.0 10.0 0.00 0.00 0.00 47 1011.2
20260505190553 48 307 4.0 10.0 0.00 0.00 0.00 43 1011.1
20260505190056 49 324 3.0 10.0 0.00 0.00 0.00 39 1011.0
20260505185553 50 300 3.0 8.0 0.00 0.00 0.00 41 1011.0
20260505185053 50 267 3.0 6.0 0.00 0.00 0.00 41 1011.2
20260505184557 49 217 3.0 7.0 0.00 0.00 0.00 44 1011.2
20260505184054 48 303 3.0 9.0 0.00 0.00 0.00 42 1011.3
20260505183552 48 304 4.0 9.0 0.00 0.00 0.00 41 1011.2
20260505183056 47 309 4.0 9.0 0.00 0.00 0.00 41 1011.3
20260505182555 48 310 4.0 9.0 0.00 0.00 0.00 42 1011.1